TimeCDT,TemperatureF,Dew PointF,Humidity,Sea Level PressureIn,VisibilityMPH,Wind Direction,Wind SpeedMPH,Gust SpeedMPH,PrecipitationIn,Events,Conditions,WindDirDegrees,DateUTC
12:52 AM,44.1,30.0,58,30.32,10.0,SSE,10.4,-,N/A,,Partly Cloudy,160,2013-04-22 05:52:00
1:52 AM,42.1,30.0,62,30.30,10.0,South,9.2,-,N/A,,Clear,170,2013-04-22 06:52:00
2:52 AM,39.9,30.9,70,30.30,10.0,South,9.2,-,N/A,,Clear,170,2013-04-22 07:52:00
3:52 AM,42.1,30.9,65,30.29,10.0,SSE,11.5,-,N/A,,Mostly Cloudy,160,2013-04-22 08:52:00
4:52 AM,39.9,30.9,70,30.29,10.0,South,9.2,-,N/A,,Clear,170,2013-04-22 09:52:00
5:52 AM,39.9,30.9,70,30.27,10.0,SSE,10.4,-,N/A,,Clear,160,2013-04-22 10:52:00
7:52 AM,45.0,32.0,60,30.27,10.0,South,10.4,-,N/A,,Clear,170,2013-04-22 12:52:00
8:52 AM,50.0,33.1,52,30.26,10.0,South,10.4,-,N/A,,Clear,170,2013-04-22 13:52:00
9:52 AM,54.0,35.1,49,30.27,10.0,South,11.5,19.6,N/A,,Clear,170,2013-04-22 14:52:00
10:52 AM,57.0,36.0,45,30.26,10.0,South,10.4,-,N/A,,Clear,180,2013-04-22 15:52:00
11:52 AM,60.1,37.0,42,30.24,10.0,South,11.5,-,N/A,,Clear,190,2013-04-22 16:52:00
12:52 PM,62.1,36.0,38,30.22,10.0,South,8.1,-,N/A,,Clear,180,2013-04-22 17:52:00
1:52 PM,64.0,37.0,37,30.18,10.0,SSE,11.5,18.4,N/A,,Clear,150,2013-04-22 18:52:00
2:52 PM,64.9,37.0,36,30.14,10.0,South,12.7,-,N/A,,Clear,170,2013-04-22 19:52:00
3:52 PM,66.0,36.0,33,30.11,10.0,SSE,13.8,-,N/A,,Clear,160,2013-04-22 20:52:00
4:52 PM,66.0,36.0,33,30.09,10.0,SSE,11.5,-,N/A,,Clear,160,2013-04-22 21:52:00
5:52 PM,64.9,37.0,36,30.06,10.0,SSE,13.8,-,N/A,,Clear,150,2013-04-22 22:52:00
6:52 PM,62.1,35.1,37,30.07,10.0,SSE,10.4,-,N/A,,Clear,150,2013-04-22 23:52:00
7:52 PM,60.1,36.0,41,30.06,10.0,SE,8.1,-,N/A,,Clear,140,2013-04-23 00:52:00
8:52 PM,55.9,37.0,49,30.07,10.0,SE,6.9,-,N/A,,Clear,130,2013-04-23 01:52:00
9:52 PM,55.9,37.0,49,30.06,10.0,SE,8.1,-,N/A,,Clear,140,2013-04-23 02:52:00
10:52 PM,54.0,37.0,53,30.06,10.0,SSE,6.9,-,N/A,,Clear,150,2013-04-23 03:52:00
11:52 PM,53.1,37.0,55,30.04,10.0,SSE,5.8,-,N/A,,Scattered Clouds,150,2013-04-23 04:52:00